Weather History for Newton, KS

Change the Weather History Date:

Saturday, July 13, 2013

  Actual Average Record
Temperature  
Mean Temperature 84 °F -  
Max Temperature 96 °F 88 °F 96 °F (2004)
Min Temperature 73 °F 67 °F 55 °F (2008)
Cooling Degree Days 20    
Growing Degree Days 34 (Base 50)    
Moisture  
Dew Point 65 °F    
Average Humidity 52    
Maximum Humidity 73    
Minimum Humidity 34    
Precipitation  
Precipitation 0.00 in - - ()
Sea Level Pressure  
Sea Level Pressure 29.99 in    
Wind  
Wind Speed 11 mph (SSE)    
Max Wind Speed 22 mph    
Max Gust Speed 24 mph    
Visibility 10 miles    
Events      
Averages and records for this station are not official NWS values.
T = Trace of Precipitation, MM = Missing Value Source: NWS Daily Summary

Daily Weather History Graph

Daily Weather History Graph

Search for Another Location

Airport:

Trip Planner

Search our weather history database for the weather conditions in past years. The results will help you decide how hot, cold, wet, or windy it might be!

Date:

Astronomy

Jul. 13, 2013 Rise Set
Actual Time 6:17 AM CDT 8:52 PM CDT
Civil Twilight 5:46 AM CDT 9:22 PM CDT
Nautical Twilight 5:08 AM CDT 10:01 PM CDT
Astronomical Twilight 4:25 AM CDT 10:43 PM CDT
Moon 11:28 AM CDT (7/13) 11:39 PM CDT (7/13)
Length of Visible Light 15h 36m
Length of Day
14h 35m
Waxing Crescent, 26% of the Moon is Illuminated
Jul 13
Waxing Crescent
Jul 15
First Quarter
Jul 22
Full
Jul 29
Last Quarter
Aug 6
New

Hourly Weather History & Observations

Time (CDT) Temp. Heat Index Dew Point Humidity Pressure Visibility Wind Dir Wind Speed Gust Speed Precip Events Conditions
12:15 AM 82.4 °F 84.6 °F 66.2 °F 58% 30.00 in 10.0 mi SSE 10.4 mph - N/A   Clear
12:35 AM 82.4 °F 84.6 °F 66.2 °F 58% 30.01 in 10.0 mi SSE 10.4 mph - N/A   Clear
12:55 AM 80.6 °F 82.7 °F 66.2 °F 61% 30.01 in 10.0 mi SSE 9.2 mph - N/A   Clear
1:15 AM 80.6 °F 82.3 °F 64.4 °F 58% 30.02 in 10.0 mi SSE 9.2 mph - N/A   Clear
1:35 AM 80.6 °F 82.3 °F 64.4 °F 58% 30.01 in 10.0 mi SSE 9.2 mph - N/A   Clear
1:55 AM 80.6 °F 82.3 °F 64.4 °F 58% 30.00 in 10.0 mi SSE 11.5 mph - N/A   Clear
2:15 AM 78.8 °F - 64.4 °F 61% 30.00 in 10.0 mi South 11.5 mph - N/A   Clear
2:35 AM 78.8 °F - 64.4 °F 61% 30.00 in 10.0 mi South 11.5 mph - N/A   Clear
2:55 AM 78.8 °F - 64.4 °F 61% 30.00 in 10.0 mi South 10.4 mph - N/A   Clear
3:15 AM 78.8 °F - 64.4 °F 61% 30.01 in 10.0 mi SSE 9.2 mph - N/A   Clear
3:35 AM 78.8 °F - 64.4 °F 61% 30.01 in 10.0 mi SSE 9.2 mph - N/A   Clear
3:55 AM 77.0 °F - 64.4 °F 65% 30.00 in 10.0 mi South 8.1 mph - N/A   Clear
4:15 AM 77.0 °F - 64.4 °F 65% 30.00 in 10.0 mi South 9.2 mph - N/A   Clear
4:35 AM 77.0 °F - 64.4 °F 65% 30.01 in 10.0 mi South 9.2 mph - N/A   Clear
4:55 AM 75.2 °F - 64.4 °F 69% 30.00 in 10.0 mi South 8.1 mph - N/A   Clear
5:15 AM 75.2 °F - 64.4 °F 69% 29.99 in 10.0 mi South 8.1 mph - N/A   Clear
5:35 AM 75.2 °F - 64.4 °F 69% 29.99 in 10.0 mi South 6.9 mph - N/A   Clear
5:55 AM 75.2 °F - 62.6 °F 65% 30.00 in 10.0 mi SSE 5.8 mph - N/A   Clear
6:15 AM 73.4 °F - 62.6 °F 69% 30.01 in 10.0 mi SSE 5.8 mph - N/A   Clear
6:35 AM 73.4 °F - 62.6 °F 69% 30.01 in 10.0 mi SSE 5.8 mph - N/A   Clear
6:55 AM 73.4 °F - 64.4 °F 73% 30.02 in 10.0 mi SSE 5.8 mph - N/A   Clear
7:15 AM 73.4 °F - 64.4 °F 73% 30.02 in 10.0 mi SSE 5.8 mph - N/A   Clear
7:35 AM 75.2 °F - 64.4 °F 69% 30.01 in 10.0 mi South 8.1 mph - N/A   Clear
7:55 AM 78.8 °F - 66.2 °F 65% 30.02 in 10.0 mi South 9.2 mph - N/A   Clear
8:15 AM 80.6 °F 82.7 °F 66.2 °F 61% 30.01 in 10.0 mi South 12.7 mph - N/A   Clear
8:35 AM 80.6 °F 82.7 °F 66.2 °F 61% 30.01 in 10.0 mi South 12.7 mph - N/A   Clear
8:55 AM 80.6 °F 82.7 °F 66.2 °F 61% 30.02 in 10.0 mi SSW 15.0 mph 19.6 mph N/A   Clear
9:15 AM 84.2 °F 86.6 °F 66.2 °F 55% 30.02 in 10.0 mi South 15.0 mph 19.6 mph N/A   Clear
9:35 AM 84.2 °F 86.6 °F 66.2 °F 55% 30.01 in 10.0 mi South 21.9 mph - N/A   Clear
9:55 AM 87.8 °F 90.4 °F 66.2 °F 49% 30.01 in 10.0 mi SSW 18.4 mph 23.0 mph N/A   Clear
10:15 AM 86.0 °F 88.2 °F 66.2 °F 51% 30.01 in 10.0 mi South 19.6 mph - N/A   Clear
10:35 AM 86.0 °F 88.2 °F 66.2 °F 51% 30.02 in 10.0 mi South 13.8 mph - N/A   Clear
10:55 AM 86.0 °F 88.2 °F 66.2 °F 51% 30.02 in 10.0 mi South 12.7 mph 17.3 mph N/A   Clear
11:15 AM 87.8 °F 90.4 °F 66.2 °F 49% 30.02 in 10.0 mi South 16.1 mph 19.6 mph N/A   Clear
11:35 AM 87.8 °F 90.4 °F 66.2 °F 49% 30.02 in 10.0 mi South 11.5 mph 19.6 mph N/A   Clear
11:55 AM 89.6 °F 92.2 °F 66.2 °F 46% 30.02 in 10.0 mi South 12.7 mph 17.3 mph N/A   Clear
12:15 PM 87.8 °F 90.4 °F 66.2 °F 49% 30.02 in 10.0 mi SSE 12.7 mph - N/A   Clear
12:35 PM 87.8 °F 90.4 °F 66.2 °F 49% 30.01 in 10.0 mi South 10.4 mph - N/A   Clear
12:55 PM 87.8 °F 90.4 °F 66.2 °F 49% 30.01 in 10.0 mi South 11.5 mph - N/A   Clear
1:15 PM 89.6 °F 92.2 °F 66.2 °F 46% 30.00 in 10.0 mi South 10.4 mph - N/A   Clear
1:35 PM 89.6 °F 92.2 °F 66.2 °F 46% 30.00 in 10.0 mi South 11.5 mph - N/A   Partly Cloudy
1:55 PM 89.6 °F 92.2 °F 66.2 °F 46% 29.99 in 10.0 mi SSE 8.1 mph - N/A   Partly Cloudy
2:15 PM 89.6 °F 92.2 °F 66.2 °F 46% 29.99 in 10.0 mi SSE 10.4 mph - N/A   Clear
2:35 PM 89.6 °F 92.2 °F 66.2 °F 46% 29.99 in 10.0 mi SSE 13.8 mph - N/A   Clear
2:55 PM 91.4 °F 94.0 °F 66.2 °F 43% 29.98 in 10.0 mi SSE 12.7 mph - N/A   Clear
3:15 PM 91.4 °F 94.0 °F 66.2 °F 43% 29.98 in 10.0 mi South 13.8 mph - N/A   Clear
3:35 PM 93.2 °F 97.7 °F 68.0 °F 44% 29.97 in 10.0 mi SSE 10.4 mph - N/A   Clear
3:55 PM 95.0 °F 98.5 °F 66.2 °F 39% 29.96 in 10.0 mi SE 13.8 mph 17.3 mph N/A   Clear
4:15 PM 95.0 °F 98.5 °F 66.2 °F 39% 29.96 in 10.0 mi SE 16.1 mph 20.7 mph N/A   Clear
4:35 PM 95.0 °F 98.5 °F 66.2 °F 39% 29.96 in 10.0 mi SE 15.0 mph - N/A   Clear
4:55 PM 96.8 °F 100.7 °F 66.2 °F 37% 29.96 in 10.0 mi SE 12.7 mph - N/A   Clear
5:15 PM 95.0 °F 98.5 °F 66.2 °F 39% 29.95 in 10.0 mi SE 15.0 mph - N/A   Clear
5:35 PM 96.8 °F 100.7 °F 66.2 °F 37% 29.95 in 10.0 mi SSE 16.1 mph - N/A   Clear
5:55 PM 95.0 °F 98.5 °F 66.2 °F 39% 29.94 in 10.0 mi SE 13.8 mph - N/A   Clear
6:15 PM 95.0 °F 97.0 °F 64.4 °F 36% 29.93 in 10.0 mi SSE 15.0 mph 21.9 mph N/A   Clear
6:35 PM 96.8 °F 99.0 °F 64.4 °F 34% 29.93 in 10.0 mi ESE 15.0 mph - N/A   Clear
6:55 PM 95.0 °F 97.0 °F 64.4 °F 36% 29.93 in 10.0 mi SE 17.3 mph 21.9 mph N/A   Clear
7:15 PM 93.2 °F 96.2 °F 66.2 °F 41% 29.93 in 10.0 mi SE 17.3 mph 23.0 mph N/A   Clear
7:35 PM 93.2 °F 94.9 °F 64.4 °F 38% 29.92 in 10.0 mi SE 18.4 mph 21.9 mph N/A   Clear
7:55 PM 91.4 °F 93.2 °F 64.4 °F 41% 29.92 in 10.0 mi SE 18.4 mph 24.2 mph N/A   Clear
8:15 PM 89.6 °F 91.1 °F 64.4 °F 43% 29.93 in 10.0 mi SE 17.3 mph 23.0 mph N/A   Clear
8:35 PM 89.6 °F 91.1 °F 64.4 °F 43% 29.94 in 10.0 mi SE 12.7 mph - N/A   Clear
8:55 PM 87.8 °F 89.4 °F 64.4 °F 46% 29.94 in 10.0 mi SE 12.7 mph - N/A   Clear
9:15 PM 87.8 °F 89.4 °F 64.4 °F 46% 29.95 in 10.0 mi SE 12.7 mph - N/A   Clear
9:35 PM 86.0 °F 87.3 °F 64.4 °F 48% 29.96 in 10.0 mi SE 13.8 mph 18.4 mph N/A   Clear
9:55 PM 86.0 °F 87.3 °F 64.4 °F 48% 29.97 in 10.0 mi SE 10.4 mph - N/A   Clear
10:15 PM 84.2 °F 85.6 °F 64.4 °F 51% 29.97 in 10.0 mi SE 13.8 mph - N/A   Clear
10:35 PM 84.2 °F 85.6 °F 64.4 °F 51% 29.98 in 10.0 mi SSE 10.4 mph - N/A   Clear
10:55 PM 84.2 °F 85.6 °F 64.4 °F 51% 29.98 in 10.0 mi SSE 10.4 mph - N/A   Clear
11:15 PM 82.4 °F 83.9 °F 64.4 °F 54% 29.98 in 10.0 mi SE 11.5 mph - N/A   Clear
11:35 PM 82.4 °F 83.9 °F 64.4 °F 54% 29.97 in 10.0 mi SE 9.2 mph - N/A   Clear
11:55 PM 82.4 °F 83.4 °F 62.6 °F 51% 29.97 in 10.0 mi SSE 10.4 mph - N/A   Clear